334P/NEAT (2017)

Japanese version
Home page
Updated on July 7, 2017

---------------------------------------------------------------------

* Profile

Designation 334P/2016 A4
Recovery Date January 7 and 10, 2016
Magnitude 20.1 mag, 19.8 mag
Recoverer K. Sarneczky, S. Kurti, P. Szekely (Piszkesteto Station of Konkoly Observatory), E. Schwab, P. Ruiz (European Space Agency's Optical Ground Station, Tenerife)

* Pictures

* Orbital Elements

Epoch 2017 May 7.0 TT = JDT 2457880.5
T 2017 May 5.37340 TT                                   MPCW
q   4.1846223            (2000.0)            P               Q
n   0.05901019     Peri.   80.52023     -0.93892611     -0.10986011
a   6.5340838      Node    92.65264     -0.01672573     -0.93198098
e   0.3595702      Incl.   19.05411     +0.34371211     -0.34545941
P  16.70
From 272 observations 2001 Feb. 24-2017 Apr. 30, mean residual 0".6.

* Magnitudes Graph

        m1 = 6.5 + 5 log d + 15.0 log r

---------------------------------------------------------------------

The orbital elements are published on M.P.E.C. 2017-J52.
The magnitudes graphs are made with Comet for Windows.

---------------------------------------------------------------------

Copyright(C) Seiichi Yoshida (comet@aerith.net). All rights reserved.